Wind_Speed
34 28 26 30 20 15 11 10 13 15 12 10 17 17 13 12 12 14 17 14 17 9 12 16 12 10 10 17 14 9 6 10 9 6 8 12 10 10 8 3 3 2 1 3
32 25 24 29 22 16 10 7 10 14 8 12 14 12 11 12 6 6 10 10 12 8 8 8 13 14 15 11 7 5 5 9 9 4 4 10 11 15 14 7 4 5 2 3
30 23 21 26 24 15 12 6 6 9 14 12 10 11 13 9 9 9 10 12 12 10 9 7 10 15 8 8 5 4 4 9 4 3 3 7 10 16 16 13 5 4 2 3
29 21 19 24 25 15 12 6 8 6 7 8 10 10 7 8 8 9 7 7 6 0 3 7 11 7 13 10 9 8 8 10 10 8 6 5 4 10 17 19 14 5 4 9
27 21 19 19 22 17 14 4 3 6 4 7 9 6 8 5 3 4 7 8 6 5 4 3 8 6 7 6 10 7 6 7 7 4 3 3 4 6 8 14 17 20 12 9
26 21 20 16 20 20 13 7 3 4 5 4 5 8 6 5 3 5 5 3 1 1 3 6 9 5 5 3 5 10 6 6 3 1 1 2 2 6 10 9 5 9 11 4
27 21 19 19 16 19 17 10 5 3 1 4 4 5 5 4 4 6 4 3 2 8 9 10 8 3 2 3 4 7 3 5 4 1 1 0 3 4 5 7 6 9 9 7
29 24 20 17 14 16 16 15 10 4 3 5 4 5 7 7 9 8 8 8 10 10 11 8 4 5 5 5 5 5 4 3 3 2 2 1 2 5 5 7 4 9 11 5
28 26 21 17 14 14 16 15 14 9 4 8 9 6 5 10 11 10 7 8 10 8 3 1 1 1 2 2 3 4 4 3 2 3 1 1 2 6 8 7 7 8 7 3
27 26 24 21 18 15 14 16 14 13 10 9 10 12 9 9 9 8 6 6 6 2 1 1 1 1 4 3 3 5 7 5 4 3 1 2 9 8 7 4 3 10 7 2
24 25 24 24 21 21 16 17 15 12 12 11 14 17 15 14 11 8 7 6 6 4 3 2 2 2 4 3 3 2 5 4 4 4 2 2 9 10 8 7 6 4 12 3
22 23 24 26 23 21 21 19 19 19 15 12 17 21 20 17 14 11 7 6 3 4 2 3 2 2 3 4 1 6 2 5 2 4 4 8 9 8 11 9 7 8 8 7
22 23 24 24 23 22 24 25 24 23 21 13 19 18 24 21 19 16 11 8 6 4 3 3 4 3 4 3 6 5 5 7 5 4 8 10 8 8 11 11 11 9 5 3
23 23 25 23 23 25 27 28 27 26 25 19 13 19 20 20 21 18 13 13 9 9 5 4 3 3 4 6 7 8 9 8 8 9 9 10 10 10 8 10 9 8 8 10
24 24 21 21 25 28 30 28 22 21 16 18 11 23 22 20 21 17 13 14 10 9 8 8 7 8 9 13 15 17 14 16 14 11 11 13 13 18 16 14 12 12 12 10
22 19 20 23 24 28 20 17 17 14 15 19 13 14 22 23 24 17 18 13 13 13 13 13 13 11 12 11 12 10 6 8 8 10 10 10 19 20 19 18 17 16 14 12
20 18 22 23 24 20 16 22 19 13 12 14 9 7 18 19 23 20 17 13 13 14 15 17 16 14 17 24 25 21 17 17 17 17 13 12 10 11 15 15 15 15 16 15
20 17 23 22 24 19 17 11 10 9 6 12 5 6 15 22 22 23 22 19 18 20 19 20 19 18 19 22 24 20 18 19 20 18 17 16 16 16 16 18 20 19 18 17
20 16 19 18 14 11 5 8 10 9 9 6 6 4 11 24 17 26 17 18 15 16 19 19 15 18 16 20 18 15 13 12 13 17 19 19 19 19 19 19 18 18 18 19
19 14 15 9 12 9 4 1 2 5 11 16 7 11 5 17 25 19 15 12 12 8 13 13 16 27 25 22 21 19 19 18 14 15 16 21 22 22 21 22 23 21 14 18
19 14 14 13 12 8 6 3 5 4 5 9 10 12 7 15 20 19 15 5 6 6 7 8 6 12 10 9 12 14 14 19 19 19 18 17 17 20 22 21 21 20 17 16
18 14 15 10 8 4 5 5 5 6 6 6 8 11 13 9 9 12 9 6 5 5 5 6 5 9 12 10 8 9 9 9 10 15 17 18 19 20 21 22 23 22 19 19
18 13 7 4 4 6 5 4 5 4 5 7 9 12 13 15 12 6 5 6 6 4 5 5 7 10 10 8 7 6 8 11 13 15 14 14 14 16 17 16 16 17 18 18
15 8 6 5 4 5 5 10 12 9 7 8 8 8 8 9 12 6 5 6 5 4 5 5 6 1 3 6 6 4 5 5 4 5 6 6 7 7 7 9 13 16 19 19
13 6 6 8 10 12 14 13 12 10 5 5 3 4 8 7 5 5 5 4 5 5 4 5 8 6 4 6 7 9 11 11 10 10 10 8 4 2 5 8 10 12 14 17
15 11 10 9 13 16 15 13 10 7 8 4 2 3 3 6 5 5 6 3 4 4 4 5 9 8 5 5 3 5 8 10 11 12 13 12 12 10 7 4 1 7 14 14
8 12 13 14 16 20 18 17 9 7 6 6 4 4 5 3 4 5 6 5 7 10 12 5 10 7 6 5 3 4 6 6 7 10 12 14 16 17 18 14 11 7 4 5
Wind_Direction
346 350 351 352 357 357 3 18 26 18 52 78 66 59 60 63 69 83 103 90 124 115 107 74 86 121 121 111 109 109 102 117 122 156 157 169 182 188 182 209 183 115 105 126
347 352 352 352 360 358 5 14 4 18 51 67 67 68 64 54 65 61 110 103 119 122 97 94 102 110 134 126 122 121 122 126 124 145 219 215 208 207 204 202 141 175 191 126
347 350 353 351 1 1 357 13 23 40 43 51 64 73 46 57 77 88 118 118 115 100 92 110 130 135 143 158 154 127 125 132 133 129 134 177 198 209 206 206 176 173 205 106
346 347 350 352 0 2 4 29 27 71 55 44 52 69 59 37 82 108 116 138 169 61 49 104 145 145 151 152 151 148 121 107 109 101 93 88 187 205 209 214 214 191 192 143
345 342 350 351 360 4 10 26 38 38 56 39 47 70 74 73 74 88 108 129 121 86 99 173 170 151 162 163 180 164 130 141 137 144 163 204 198 193 199 215 227 228 232 220
346 341 347 343 354 6 9 6 44 47 132 84 58 64 61 103 105 113 132 142 70 354 101 106 148 167 176 196 195 207 192 157 102 74 349 325 286 244 222 207 203 217 223 215
341 342 338 341 339 358 7 1 348 358 203 93 121 92 101 127 158 140 146 133 143 128 126 118 111 121 161 176 184 182 200 202 190 175 0 323 163 92 133 203 216 214 206 198
337 337 339 347 344 340 359 2 345 332 169 214 132 142 118 116 117 107 103 117 130 129 114 105 100 86 100 87 111 137 137 166 151 158 203 252 235 201 158 145 147 179 157 172
336 331 333 333 339 332 324 339 348 320 267 214 215 167 133 150 142 140 126 131 140 126 84 56 151 121 146 149 167 185 188 210 140 149 160 174 186 155 168 170 173 179 186 248
331 326 325 324 324 325 326 314 313 327 285 228 221 207 207 167 174 174 171 170 189 232 276 274 166 163 172 156 189 208 203 223 196 194 250 228 171 170 180 195 196 217 231 249
323 321 320 318 317 314 318 314 314 307 303 249 222 214 206 210 197 197 199 205 227 233 242 228 223 185 202 191 207 169 191 174 170 179 204 201 184 197 192 207 210 250 238 246
317 314 317 315 311 310 309 309 309 304 289 274 235 222 217 210 218 212 210 203 204 208 208 215 208 216 212 207 228 217 218 201 184 182 165 138 150 180 205 221 245 276 270 244
313 312 314 314 305 306 305 306 307 303 294 277 246 230 222 219 219 220 216 224 214 204 221 231 226 221 221 213 233 224 231 224 225 205 206 220 235 213 225 243 261 257 232 287
312 313 313 308 302 303 301 302 305 301 295 280 246 228 224 221 217 217 217 214 222 216 226 224 223 234 249 243 239 236 231 234 240 244 224 240 228 224 228 233 233 249 265 261
313 315 310 307 305 304 299 298 297 294 271 269 235 221 220 216 213 212 218 220 222 229 248 251 259 264 275 276 274 263 248 245 250 264 263 235 232 222 226 240 254 265 279 271
319 316 314 314 314 316 307 307 302 278 271 267 246 221 216 214 212 214 216 218 226 227 242 257 263 270 275 272 259 272 257 236 244 267 270 262 237 233 243 252 258 263 265 267
317 313 319 318 307 312 282 288 287 284 281 233 224 220 212 212 198 202 221 217 234 242 246 251 257 260 255 264 264 281 270 273 262 256 260 250 238 235 243 247 251 256 259 261
315 316 325 318 318 304 274 276 255 270 228 204 253 192 191 184 196 199 213 222 234 235 255 263 262 256 268 263 278 277 269 265 261 250 249 236 234 241 253 260 260 262 262 257
319 320 331 336 348 339 267 271 259 230 206 232 234 198 171 185 200 208 216 225 251 257 261 256 257 260 239 262 275 279 275 264 260 254 248 247 245 247 250 259 262 270 264 244
320 327 334 333 345 352 7 164 216 260 233 231 237 184 185 192 203 207 209 231 230 252 259 256 250 253 267 268 268 265 263 266 258 261 267 246 244 249 254 255 255 258 267 241
314 321 329 305 313 295 281 261 236 228 236 245 232 198 175 193 186 196 194 195 218 234 232 216 250 270 294 275 266 268 262 262 254 258 257 256 255 256 261 260 256 260 259 236
317 313 322 299 298 261 249 245 232 226 233 239 221 208 196 197 196 190 197 222 228 243 214 217 250 293 301 294 286 275 280 283 278 264 265 265 263 261 259 260 258 254 240 233
318 310 306 274 254 248 247 249 240 237 238 236 207 205 203 206 215 212 208 212 229 232 223 233 251 285 302 305 301 295 295 291 283 282 279 274 268 268 266 258 241 234 225 231
318 300 276 270 248 256 268 287 302 305 284 196 210 201 189 188 186 195 210 217 226 236 231 229 246 234 67 76 61 46 35 18 350 316 294 273 279 283 272 255 238 222 225 235
312 267 253 247 255 267 281 293 310 286 229 171 149 175 197 185 200 200 213 216 230 232 240 236 181 164 121 97 91 72 56 49 51 56 60 68 65 335 266 256 251 242 248 257
296 255 252 267 285 307 310 292 289 329 188 182 263 230 221 201 208 209 211 227 238 261 294 216 187 181 165 145 118 59 46 40 33 30 29 31 35 40 49 64 63 253 249 245
271 280 287 278 272 274 300 288 301 263 265 254 216 214 222 221 222 219 212 228 260 289 298 234 194 195 211 230 268 326 355 5 358 352 347 346 346 347 349 357 17 14 32 248
Height
3035 3030 3024 3017 3011 3008 3004 3002 2999 2996 2993 2992 2988 2986 2985 2984 2983 2982 2980 2982 2983 2985 2986 2987 2987 2990 2991 2994 2996 2998 3000 3004 3011 3014 3015 3017 3019 3020 3022 3023 3025 3025 3027 3030
3034 3029 3024 3018 3011 3007 3005 3003 3002 2998 2996 2993 2992 2991 2989 2987 2987 2986 2986 2986 2987 2988 2988 2991 2993 2994 2996 2997 2999 3001 3003 3007 3012 3017 3019 3017 3017 3019 3020 3022 3023 3025 3027 3029
3033 3028 3023 3018 3013 3008 3006 3004 3003 3002 2998 2997 2995 2994 2993 2991 2990 2989 2989 2990 2991 2991 2991 2992 2995 2997 2998 3000 3001 3002 3004 3005 3007 3009 3011 3012 3014 3016 3019 3021 3024 3025 3026 3026
3032 3026 3023 3019 3013 3009 3006 3004 3003 3002 3001 2999 2996 2996 2996 2995 2993 2993 2993 2993 2993 2994 2995 2995 2996 2998 3000 3002 3003 3004 3005 3007 3008 3009 3010 3011 3011 3014 3016 3018 3022 3025 3027 3029
3030 3025 3021 3018 3014 3010 3007 3005 3004 3004 3002 3000 2999 2997 2997 2996 2996 2996 2996 2996 2996 2996 2996 2997 2998 3000 3002 3003 3006 3007 3008 3010 3012 3013 3013 3013 3013 3013 3014 3016 3018 3021 3024 3026
3030 3026 3022 3018 3015 3011 3008 3006 3004 3004 3004 3002 3000 2999 2998 2998 2998 2998 2998 2998 2998 2997 2997 2997 2999 3000 3002 3003 3004 3006 3008 3009 3010 3010 3010 3011 3012 3011 3012 3014 3017 3020 3021 3023
3030 3026 3021 3018 3014 3012 3009 3007 3006 3004 3004 3003 3002 3000 2999 2998 2998 2999 2999 2999 2999 3000 2999 3000 3001 3001 3002 3002 3003 3004 3006 3007 3009 3010 3010 3011 3011 3010 3010 3013 3015 3016 3018 3021
3029 3025 3020 3017 3015 3012 3010 3007 3006 3004 3003 3003 3003 3002 3000 3000 3000 3001 3001 3000 3001 3001 3002 3003 3003 3003 3004 3004 3004 3004 3006 3007 3008 3010 3010 3011 3010 3011 3013 3013 3015 3015 3017 3018
3027 3023 3021 3016 3014 3012 3009 3008 3006 3004 3004 3003 3003 3003 3002 3001 3002 3003 3003 3003 3003 3004 3004 3004 3004 3004 3004 3005 3006 3006 3006 3007 3009 3009 3010 3010 3011 3011 3012 3014 3015 3015 3016 3016
3023 3020 3017 3015 3011 3010 3008 3006 3004 3003 3001 3001 3002 3003 3003 3002 3002 3003 3003 3004 3004 3005 3005 3004 3004 3004 3004 3005 3006 3005 3006 3007 3009 3009 3010 3011 3011 3012 3013 3016 3018 3014 3015 3014
3020 3017 3014 3012 3009 3005 3005 3004 3002 3001 2998 2998 2997 3000 3001 3002 3001 3002 3003 3005 3004 3004 3004 3004 3004 3004 3004 3004 3005 3005 3006 3007 3008 3009 3010 3011 3010 3012 3013 3014 3013 3013 3013 3013
3016 3013 3010 3007 3005 3002 2999 3000 2998 2996 2995 2994 2993 2993 2996 2999 3000 3001 3001 3002 3002 3002 3003 3004 3003 3003 3003 3004 3005 3005 3007 3007 3008 3009 3009 3008 3009 3010 3010 3011 3012 3011 3011 3011
3012 3009 3007 3004 3001 2998 2995 2993 2992 2991 2988 2989 2988 2989 2991 2993 2996 2997 3000 3001 3001 3001 3002 3002 3002 3003 3003 3003 3004 3004 3004 3004 3005 3007 3007 3007 3007 3008 3009 3009 3009 3009 3009 3009
3006 3004 3001 2999 2997 2994 2990 2988 2987 2985 2983 2981 2983 2983 2985 2988 2991 2994 2997 2998 2999 3000 3001 3001 3001 3002 3002 3002 3002 3002 3003 3003 3003 3004 3005 3005 3006 3006 3006 3007 3007 3007 3007 3007
3002 2998 2996 2994 2991 2988 2984 2982 2981 2978 2981 2975 2976 2977 2980 2984 2987 2991 2993 2995 2997 2998 2999 2999 3000 3000 3001 2999 2998 2996 2998 2999 3000 3000 3001 3002 3002 3002 3003 3004 3004 3005 3004 3004
2996 2993 2991 2988 2985 2980 2976 2976 2976 2973 2972 2973 2972 2973 2976 2979 2983 2987 2990 2992 2994 2995 2996 2997 2997 2998 2999 2995 2992 2993 2994 2995 2996 2997 2997 2997 2996 2998 2999 3000 3001 3001 3001 3001
2990 2988 2986 2982 2978 2975 2974 2973 2971 2971 2970 2969 2970 2969 2970 2975 2980 2984 2986 2988 2991 2992 2992 2992 2993 2994 2994 2989 2986 2989 2990 2990 2991 2992 2992 2993 2992 2993 2994 2995 2995 2995 2996 2996
2985 2983 2981 2977 2973 2969 2969 2968 2968 2969 2967 2968 2967 2966 2968 2972 2976 2980 2983 2986 2987 2987 2988 2989 2989 2990 2988 2982 2980 2982 2983 2983 2983 2984 2985 2987 2988 2988 2989 2989 2989 2989 2990 2990
2981 2979 2977 2974 2971 2966 2965 2965 2965 2966 2969 2966 2964 2964 2966 2970 2972 2976 2980 2982 2983 2983 2982 2983 2985 2982 2979 2976 2976 2977 2977 2977 2977 2978 2978 2979 2981 2982 2982 2983 2983 2983 2983 2984
2978 2977 2975 2973 2971 2968 2967 2966 2965 2965 2964 2963 2961 2962 2965 2968 2971 2974 2979 2979 2980 2978 2979 2978 2975 2971 2971 2971 2971 2972 2972 2972 2973 2973 2973 2972 2973 2975 2975 2976 2976 2976 2977 2978
2977 2974 2973 2972 2970 2968 2967 2966 2965 2964 2963 2961 2961 2961 2963 2966 2968 2972 2975 2974 2976 2975 2975 2974 2970 2965 2965 2965 2966 2966 2965 2966 2966 2967 2966 2967 2968 2968 2968 2968 2969 2970 2971 2973
2976 2973 2971 2970 2968 2967 2967 2963 2963 2961 2961 2959 2959 2961 2963 2965 2967 2969 2971 2972 2972 2970 2970 2970 2965 2963 2962 2961 2961 2961 2961 2961 2961 2961 2961 2961 2961 2961 2961 2961 2961 2962 2964 2966
2974 2971 2970 2968 2967 2966 2963 2960 2959 2958 2957 2957 2958 2959 2961 2963 2966 2967 2968 2968 2968 2968 2966 2963 2962 2961 2960 2959 2958 2958 2957 2957 2956 2955 2955 2955 2954 2954 2954 2954 2954 2956 2958 2961
2973 2970 2969 2967 2964 2963 2961 2959 2958 2957 2955 2956 2956 2957 2959 2961 2963 2964 2965 2965 2965 2963 2961 2959 2959 2959 2959 2958 2958 2958 2957 2956 2954 2953 2952 2951 2951 2950 2950 2950 2951 2952 2954 2956
2971 2969 2966 2963 2963 2961 2959 2958 2956 2955 2955 2955 2956 2957 2959 2959 2961 2961 2962 2962 2960 2958 2956 2956 2957 2958 2959 2959 2959 2959 2958 2957 2956 2954 2953 2951 2950 2949 2949 2949 2948 2949 2950 2951
2967 2965 2963 2962 2961 2959 2957 2956 2955 2954 2953 2955 2956 2956 2957 2957 2958 2958 2958 2958 2956 2956 2954 2955 2956 2958 2959 2959 2960 2959 2959 2958 2957 2955 2954 2953 2952 2950 2949 2947 2946 2945 2945 2945
2962 2960 2959 2958 2957 2957 2955 2954 2953 2953 2954 2954 2955 2955 2955 2955 2955 2955 2955 2955 2955 2954 2953 2953 2955 2957 2958 2958 2959 2959 2958 2957 2957 2956 2955 2954 2952 2950 2948 2947 2945 2944 2942 2942